Welcome to the New NWS' Forecast!
Most changes are behind the scenes, but click here for differences you might notice.
Latest weather observations around

Birmingham, Birmingham International Airport (KBHM)

Using English Units (Switch to International System of Units)
Date/ Time (CDT) Wind (mph) Vis. (mi) Weather Sky Cond. Temp (°F) Rel. Humidity Wind Chill (°F) Heat Index (°F) Pressure Precip. (in)
Air Dwpt 6 hour Altimeter (inHg) Sea level (inHg) 1 hr 3 hr 6 hr
Max Min
Jul 19 14:53 NNW 8 10 Mostly Cloudy BKN150 BKN250 84 72     67%   90 29.96 29.93      
Jul 19 13:53 NW 7 10 Mostly Cloudy FEW055 BKN140 BKN250 83 71     67%   88 29.97 29.94      
Jul 19 12:53 NW 7 10 Cloudy FEW055 BKN140 OVC250 82 71     69%   86 29.99 29.96      
Jul 19 11:53 W 10 10 Cloudy SCT055 BKN140 OVC250 84 70     63%   88 30 29.97      
Jul 19 10:53 Calm 10 Mostly Cloudy FEW110 BKN150 BKN250 86 67     53%   89 30 29.97      
Jul 19 09:53 Calm 10 Mostly Cloudy FEW110 BKN150 85 67     55%   88 30.01 29.98      
Jul 19 08:53 ENE 5 10 Mostly Cloudy SCT120 BKN150 80 66     62%   82 29.99 29.96      
Jul 19 07:53 Calm 10 Mostly Cloudy SCT075 BKN120 BKN150 78 66     67%   79 29.99 29.96      
Jul 19 06:53 3 10 Mostly Cloudy FEW120 BKN150 77 69     77%   78 29.98 29.95      
Jul 19 05:53 NE 5 10 Mostly Cloudy BKN150 77 68     74%   78 29.97 29.94      
Jul 19 04:53 Calm 10 Mostly Clear FEW047 76 70     82%   77 29.96 29.93      
Jul 19 03:53 Calm 10 Mostly Clear FEW048 75 73     94%   77 29.95 29.92      
Jul 19 02:53 Calm 10 Clear CLR 76 73     91%   77 29.94 29.91      
Jul 19 01:53 Calm 10 Clear CLR 76 73     91%   77 29.95 29.91      
Jul 19 00:53 NE 3 10 Clear CLR 77 73     88%   79 29.96 29.93      
Jul 18 23:53 Calm 10 Mostly Clear FEW075 79 74     85%   83 29.97 29.94      
Jul 18 22:53 ESE 3 10 Mostly Clear FEW055 FEW075 80 73     79%   84 29.97 29.94      
Jul 18 21:53 SE 6 10 Mostly Cloudy FEW049 BKN250 80 73     79%   84 29.98 29.95      
Jul 18 20:53 Calm 10 Mostly Cloudy FEW050 BKN250 82 73     74%   87 29.96 29.93      
Jul 18 19:53 Calm 10 Cloudy FEW050 OVC250 83 72     70%   88 29.94 29.92      
Jul 18 18:53 Calm 10 Mostly Cloudy FEW040 BKN250 86 76     72%   96 29.93 29.91      
Jul 18 17:53 Calm 10 Mostly Cloudy FEW045 BKN250 87 72     61%   94 29.93 29.91      
Jul 18 16:53 ESE 9 10 Mostly Cloudy BKN047 BKN055 BKN250 89 70     53%   94 29.93 29.91      
Jul 18 15:53 6 10 Mostly Cloudy FEW040 BKN250 93 71     49%   100 29.93 29.9      
Jul 18 15:47 NNW 10 10 Mostly Cloudy FEW040 BKN250 93 72     50%   101 29.94        
Jul 18 15:07 NNW 11 10 Thunderstorms SCT040 BKN250 94 70     46%   100 29.95        
Jul 18 14:53 7 10 Mostly Cloudy SCT040 BKN250 94 72     49%   102 29.95 29.92      
Jul 18 13:53 NW 6 10 Partly Cloudy SCT041 SCT250 92 72     52%   100 29.98 29.95      
Jul 18 12:53 N 3 10 Partly Cloudy SCT042 SCT250 92 75     58%   103 29.99 29.96      
Jul 18 11:53 NNW 6 10 Partly Cloudy SCT030 SCT036 SCT250 89 75     63%   99 30.01 29.98      
Jul 18 10:53 5 10 Partly Cloudy FEW023 SCT250 87 75     68%   97 30.03 30      
Jul 18 09:53 5 10 Partly Cloudy FEW023 FEW140 SCT250 85 75     72%   93 30.03 30      
Jul 18 08:53 Calm 10 Mostly Cloudy SCT140 BKN250 81 73     77%   86 30.04 30.01      
Jul 18 07:53 WSW 3 10 Mostly Cloudy BKN149 BKN250 78 73     85%   80 30.03 30.01      
Jul 18 06:53 WNW 3 9 Clear   75 73     94%   77 30.03 30.01      
Jul 18 05:53 Calm 10 Mostly Cloudy FEW044 SCT120 BKN250 75 73     94%   77 30.02 30      
Jul 18 04:53 WNW 3 10 Partly Cloudy SCT250 75 73     94%   77 30 29.97      
Jul 18 03:53 Calm 10 Partly Cloudy SCT250 76 73     91%   77 29.99 29.96      
Jul 18 02:53 WNW 3 10 Partly Cloudy SCT250 76 74     94%   78 29.99 29.96      
Jul 18 01:53 NW 3 10 Partly Cloudy SCT250 77 73     88%   79 30 29.97      
Jul 18 00:53 N 3 10 Clear CLR 78 75     90%   80 30 29.97      
Jul 17 23:53 NNW 8 9 Clear CLR 80 76     87%   85 30.02 29.99      
Jul 17 22:53 Calm 10 Mostly Clear FEW250 81 75     82%   87 30.03 30      
Jul 17 21:53 Calm 10 Mostly Cloudy BKN250 81 75     82%   87 30.03 30      
Jul 17 20:53 Calm 10 Mostly Cloudy BKN250 82 74     77%   88 30.01 29.98      
Jul 17 19:53 NNE 3 10 Mostly Cloudy SCT100 BKN250 83 74     74%   89 30.02 29.99      
Jul 17 18:53 N 5 10 Mostly Cloudy FEW050 SCT100 BKN250 86 73     65%   93 30 29.97      
Jul 17 17:53 NW 8 10 Mostly Cloudy FEW050 BKN250 88 71     57%   94 30 29.97      
Jul 17 16:53 WNW 9 10 Mostly Cloudy SCT050 BKN250 90 71     54%   96 29.99 29.96      
Jul 17 15:53 3 10 Mostly Cloudy SCT050 BKN250 89 70     53%   94 30 29.97      
Jul 17 14:53 WSW 8 10 Mostly Cloudy SCT029 BKN050 BKN250 88 74     63%   97 30.02 29.99      
Jul 17 13:53 WSW 6 8 Mostly Cloudy SCT029 BKN040 BKN050 86 74     67%   94 30.03 30.01      
Jul 17 12:53 3 7 Partly Cloudy SCT027 87 73     63%   95 30.05 30.02      
Jul 17 12:51 3 7 Partly Cloudy SCT027 88 73     62%   96 30.05        
Jul 17 12:33 SSW 5 7 Mostly Cloudy BKN026 85 73     68%   92 30.06        
Jul 17 12:13 3 7 Mostly Clear FEW022 85 74     70%   92 30.06        
Jul 17 11:53 SW 6 7 Mostly Cloudy BKN017 BKN022 84 74     72%   91 30.07 30.04      
Jul 17 11:21 3 5 Haze OVC015 82 75     79%   89 30.08        
Jul 17 10:53 3 5 Haze OVC013 81 74     79%   86 30.08 30.05      
Jul 17 10:23 Calm 5 Haze OVC010 79 74     85%   83 30.07        
Jul 17 09:53 Calm 5 Haze OVC008 78 73     85%   80 30.07 30.04      
Jul 17 09:08 3 5 Fog/Mist OVC006 77 73     88%   79 30.08        
Jul 17 08:53 Calm 2 Fog/Mist OVC005 76 73     91%   77 30.09 30.06      
Jul 17 07:53 WSW 6 2 Fog/Mist OVC006 75 73     94%   77 30.09 30.06      
Jul 17 07:06 WNW 6 2 Fog/Mist OVC006 75 73     94%   77 30.07        
Jul 17 06:53 SW 5 2 Fog/Mist OVC004 74 73     97%   76 30.07 30.04      
Jul 17 06:42 SW 5 2.5 Fog/Mist OVC004 74 73     97%   76 30.07        
Jul 17 06:10 SSW 5 2.5 Fog/Mist OVC005 74 73     97%   76 30.07        
Jul 17 05:53 SW 5 4 Fog/Mist OVC006 74 73     97%   76 30.07 30.04      
Jul 17 04:53 WSW 6 8 Cloudy OVC007 75 73     94%   77 30.05 30.02      
Jul 17 03:53 W 3 10 Clear   75 73     94%   77 30.04 30.01      
Jul 17 03:30 Calm 10 Mostly Cloudy BKN011 75 72     90%   76 30.04        
Jul 17 02:53 Calm 10 Mostly Clear FEW028 74 72     94%   75 30.03 30      
Jul 17 01:53 W 5 10 Partly Cloudy SCT028 75 72     90%   76 30.03 30      
Jul 17 00:53 SSW 6 10 Mostly Clear FEW014 76 72     88%   77 30.03 30      
Jul 17 00:30 S 5 10 Mostly Clear FEW016 FEW023 FEW028 77 72     84%   78 30.04        
Jul 16 23:53 SSW 8 10 Cloudy FEW010 BKN015 OVC038 78 73     85%   80 30.05 30.03      
Jul 16 23:42 W 5 10 Mostly Cloudy SCT013 BKN021 BKN038 79 76     90%   83 30.06        
Jul 16 23:21 WNW 5 10 Mostly Cloudy SCT017 SCT025 BKN055 79 75     88%   83 30.06        
Jul 16 22:53 W 8 10 Cloudy OVC025 80 76     87%   85 30.06 30.03      
Jul 16 22:37 WNW 6 10 Mostly Cloudy SCT023 BKN028 80 76     87%   85 30.05        
Jul 16 22:31 W 6 1 Mostly Cloudy SCT026 BKN032 80 76     87%   85 30.05        
Jul 16 21:53 Calm 10 Mostly Cloudy FEW050 BKN100 79 74     85%   83 30.05 30.03      
Jul 16 20:53 Calm 10 Mostly Cloudy FEW022 BKN050 BKN110 81 73     77%   86 30.05 30.02      
Jul 16 19:53 Calm 10 Mostly Cloudy BKN100 BKN250 80 74     82%   85 30.03 30      
Jul 16 18:53 SE 3 10 Mostly Cloudy SCT120 BKN250 82 73     74%   87 30.02 29.99     0
Jul 16 17:53 S 6 10 Mostly Cloudy BKN250 85 73     68%   92 30.02 29.99      
Jul 16 16:53 S 6 10 Mostly Cloudy BKN250 84 72     67%   90 30.01 29.98      
Jul 16 15:53 SW 7 10 Mostly Cloudy FEW100 BKN250 82 72     72%   87 30.01 29.98   0  
May 13 22:53 Calm 10 Clear CLR 73 64     73%   73 30.09 30.06      
May 13 16:53 NNW 7 10 Mostly Clear FEW065 91 58     33%   90 30.06 30.03      
May 13 13:53 6 10 Mostly Clear FEW065 89 60     38%   89 30.12 30.1      
May 12 16:53 S 7 10 Mostly Clear FEW250 89 53     29%   87 30.1 30.08      
May 12 08:53 Calm 10 Clear CLR 78 58     50%   78 30.2 30.17      
May 12 03:53 Calm 10 Clear CLR 64 59     84%     30.13 30.1      
May 11 20:53 SSE 3 10 Clear CLR 78 58     50%   78 30.11 30.08      
Jun 12 03:53 SSE 5 10 Mostly Clear FEW040 74 71     91%   75 30.15 30.13      
Jun 11 23:53 SSE 5 10 Mostly Clear FEW050 79 70     74%   82 30.15 30.12      
Jun 11 07:53 SE 9 10 Partly Cloudy SCT065 SCT250 75 66     74%   76 30.17 30.14      
Jun 10 13:53 ESE 9 10 Mostly Cloudy SCT060 BKN075 86 58     39%   85 30.09 30.06      
Jun 10 11:53 3 10 Partly Cloudy SCT070 82        %     30.11 30.09      
Jun 08 22:53 Calm 10 Clear CLR 68 59     73%     29.95 29.93      
Jun 08 20:53 N 7 10 Mostly Clear FEW250 70 58     66%     29.91 29.89      
Jun 07 18:53   10 Mostly Clear FEW065 FEW250 79 54     42%   79 29.87 29.85      
Jun 06 03:11 NE 5 10 Mostly Cloudy FEW007 FEW022 BKN028 71 70     96%   72 29.81        
Jun 06 02:53 NNE 5 10 Partly Cloudy SCT120 71 70     96%   72 29.81 29.78      
Jun 05 19:53 Calm 10 Light Rain FEW020 SCT120 OVC250 72 70     93%   73 29.82 29.8 0    
Jun 05 14:53 Calm 10 Cloudy BKN065 BKN100 OVC250 75 70     84%   76 29.84 29.82 0